Regional Weather Roundup
Issued by NWS

Home | Current Version | Previous Version | Graphics & Text | Print | Product List | Glossary Off
Versions: 1 2 3 4 5 6 7 8 9 10 11 12 13 14 15 16 17 18 19 20 21 22 23 24 25 26 27 28 29 30 31 32 33 34 35 36 37 38 39 40 41 42 43 44 45 46 47 48 49 50

000
ASUS43 KMKX 270400
RWRWI

WISCONSIN REGIONAL WEATHER ROUNDUP
NATIONAL WEATHER SERVICE MILWAUKEE/SULLIVAN WI
1100 PM CDT FRI MAY 26 2017

NOTE: "FAIR" INDICATES FEW OR NO CLOUDS BELOW 12,000 FEET WITH NO
SIGNIFICANT WEATHER AND/OR OBSTRUCTIONS TO VISIBILITY.

WIZ001-002-006>008-014>016-023>028-270500-
NORTHWEST WISCONSIN

CITY           SKY/WX    TMP DP  RH WIND       PRES   REMARKS
SUPERIOR ARPT  NOT AVBL
ASHLAND        MOCLDY    58  55  90 S5        29.79F
HAYWARD        CLOUDY    58  56  93 CALM      29.81R
SIREN          CLEAR     58  57  96 CALM      29.80R
CUMBERLAND     MOCLDY    63  54  72 N7        29.81R
RICE LAKE      PTCLDY    62  59  91 E3        29.82S
CHETEK         LGT RAIN  62  60  93 CALM      29.81R
LADYSMITH      CLOUDY    63  56  79 CALM      29.83S
EAU CLAIRE     NOT AVBL
MENOMONIE      PTCLDY    64  57  76 S8        29.81R
NEW RICHMOND   PTCLDY    61  50  66 W5        29.81R
OSCEOLA        CLEAR     60  51  74 CALM      29.83R
$$

WIZ003>005-009-010-017-018-270500-
NORTH CENTRAL WISCONSIN

CITY           SKY/WX    TMP DP  RH WIND       PRES   REMARKS
MANITOWISH WTR MOCLDY    56  56 100 CALM      29.82S
ARBOR VITAE    CLOUDY    57  55  92 CALM      29.83S
WOODRUFF       CLOUDY    57  55  92 CALM      29.83S
RHINELANDER    CLOUDY    55  53  93 S5        29.85S FOG
EAGLE RIVER    CLOUDY    57  53  84 SE3       29.84S
LAND O LAKES   MOCLDY    58  56  91 SE6       29.85F
PHILLIPS       CLEAR     55  54  98 CALM      29.82S
TOMAHAWK       CLEAR     54  53  96 CALM      29.85R
MEDFORD        CLEAR     56  53  88 S7        29.84S
MERRILL        CLEAR     60  54  80 S3        29.86R
$$

WIZ029-030-035-036-043>047-270500-
CENTRAL WISCONSIN

CITY           SKY/WX    TMP DP  RH WIND       PRES   REMARKS
WAUSAU         CLEAR     59  53  80 CALM      29.84R
MOSINEE        CLEAR     55  52  88 S6        29.86R
MARSHFIELD     CLEAR     56  52  86 S6        29.85R
STEVENS POINT  CLEAR     56  52  86 SW3       29.87R
WAUPACA        PTCLDY    60  54  81 S3        29.86R
WAUTOMA        CLEAR     58  54  86 SW3       29.87R
WISC RAPIDS    CLEAR     57  53  86 S6        29.87R
CAMP DOUGLAS   NOT AVBL
$$

WIZ011>013-019>022-031-037>040-048>050-270500-
NORTHEAST WISCONSIN

CITY           SKY/WX    TMP DP  RH WIND       PRES   REMARKS
ANTIGO         CLEAR     56  55  95 S3        29.87R
SHAWANO        PTCLDY    62  54  74 CALM      29.86R
OCONTO         MOCLDY    59  54  84 SE3       29.85S
STURGEON BAY   CLOUDY    56  51  84 S3        29.88R
GREEN BAY      MOCLDY    59  57  93 S5        29.86S
MANITOWOC      NOT AVBL
APPLETON       PTCLDY    57  52  82 S3        29.85R
CLINTONVILLE   CLEAR     59  52  77 S6        29.85R
OSHKOSH        CLEAR     58  53  84 S5        29.86S
$$

WIZ032>034-041-042-053>061-270500-
SOUTHWEST WISCONSIN

CITY           SKY/WX    TMP DP  RH WIND       PRES   REMARKS
LA CROSSE      CLEAR     63  57  81 S6        29.83R
SPARTA         CLEAR     55  54  95 CALM      29.86R
VIROQUA        CLEAR     58  55  91 MISG      29.87R
BOSCOBEL       CLEAR     55  54  96 CALM      29.88R FOG
PRAIRIE DU CHI CLEAR     58  56  92 CALM      29.86R
PLATTEVILLE    CLEAR     58  58  99 SE6       29.88R
$$

WIZ056-057-062-063-064-067-068-270500-
SOUTH CENTRAL WISCONSIN

CITY           SKY/WX    TMP DP  RH WIND       PRES   REMARKS
REEDSBURG      CLEAR     56  56 100 CALM      29.87R
BARABOO/DELLS  CLEAR     54  52  92 CALM      29.87R
LONE ROCK      NOT AVBL
MINERAL POINT  CLEAR     57  57 100 SE3       29.88R
MADISON        PTCLDY    55  52  89 CALM      29.87R
MIDDLETON      CLEAR     55  55 100 CALM      29.88R
WATERTOWN      CLEAR     52  52 100 CALM      29.87S
MONROE         CLEAR     55  54  94 E5        29.87S
JANESVILLE     CLEAR     55  54  94 E5        29.87R
$$

WIZ051-052-058>065-066-070>072-270500-
SOUTHEAST WISCONSIN

CITY           SKY/WX    TMP DP  RH WIND       PRES   REMARKS
MILWAUKEE      PTCLDY    53  51  93 CALM      29.87F
WAUKESHA       CLEAR     52  52 100 CALM      29.89  FOG
MILWAUKEE/TIMM   N/A     54  50  87 CALM      29.88S FOG
RACINE         CLEAR     50  48  93 N3        29.89R
KENOSHA        CLEAR     52  51  97 N3        29.87S
FOND DU LAC    CLEAR     57  51  80 S5        29.87S
SHEBOYGAN      CLEAR     53  53 100 S3        29.87S
WEST BEND      CLEAR     52  52 100 CALM      29.88S
JUNEAU         CLEAR     55  53  90 CALM      29.89R
$$

LSZ147-162-270500-
LAKE SUPERIOR

STATION/POSITION TIME  TEMP    WIND        PRES    WAVE
                       AIR SEA DIR/SP/G            HT/PER
                 (UTC) (F)     (DEG/KT/KT) (MB)    (FT/S)
W MID LAKE BUOY  0250   44 37  130/  8/ 10 1008.2R   0
DEVILS ISLAND    0300   50     200/ 10/ 11 1008.4R
PORT WING        0340   45     260/  1/  3 1008.8R
SAXON HARBOR     0340   60      50/  3/  4 1008.5R
$$

LMZ867-665-643>646-270500-
LAKE MICHIGAN

STATION/POSITION TIME  TEMP    WIND        PRES    WAVE
                       AIR SEA DIR/SP/G            HT/PER
                 (UTC) (F)     (DEG/KT/KT) (MB)    (FT/S)
CHAMBERS ISLAND  0340   57      CALM  /  2 1010.8S
N MID LAKE BUOY  0250   44 42  140/  4/  6 1012.4R   0
NORTHPORT PIER   0340   51     310/  2/  5 1011.5R
KEWAUNEE LAKESHO 0330   51     150/  5/  5 1011.2R
SHEBOYGAN LAKESH 0300   54     220/  4/  4 1011.6R
PORT WASHINGTON  0330   54      CALM  /  1 1012.5S
ATWATER BUOY     0209   48     110/  4/  6 1011.5R
MILWAUKEE LAKESH 0330   49      50/  1/  1   N/A
S MID LAKE BUOY  0250   48 46   60/  6/  6 1011.6R   0
KENOSHA   LAKESH 0300   51     360/  3/  5 1011.5
$$

TC  - TEMPERATURE IN CELSIUS
VSB - VISIBILITY IN STATUTE MILES
WCI - WIND CHILL INDEX
HX  - HEAT INDEX





USA.gov is the U.S. government's official web portal to all federal, state and local government web resources and services.